Time,TemperatureF,DewpointF,PressureIn,WindDirection,WindDirectionDegrees,WindSpeedMPH,WindSpeedGustMPH,Humidity,HourlyPrecipIn,Conditions,Clouds,dailyrainin,SoftwareType,DateUTC
2013-06-14 00:00:00,56.1,53.8,29.48,SW,225,3.3,27.9,92,0.06,,,0.00,heavyweathercustom,2013-06-14 04:00:00,
2013-06-14 00:10:00,56.1,53.8,29.48,WNW,293,6.8,27.9,92,0.06,,,0.00,heavyweathercustom,2013-06-14 04:10:00,
2013-06-14 00:20:00,56.3,54.0,29.48,WNW,293,3.3,27.9,92,0.06,,,0.00,heavyweathercustom,2013-06-14 04:20:00,
2013-06-14 00:30:00,55.9,53.3,29.50,West,270,3.3,27.9,91,0.04,,,0.00,heavyweathercustom,2013-06-14 04:30:00,
2013-06-14 00:40:00,55.4,52.8,29.51,WSW,248,6.8,27.9,91,0.00,,,0.00,heavyweathercustom,2013-06-14 04:40:00,
2013-06-14 00:50:00,55.2,52.6,29.52,NNW,338,3.3,21.0,91,0.00,,,0.00,heavyweathercustom,2013-06-14 04:50:00,
2013-06-14 01:00:00,55.0,52.4,29.52,ESE,113,0.0,21.0,91,0.00,,,0.00,heavyweathercustom,2013-06-14 05:00:00,
2013-06-14 01:10:00,54.5,52.2,29.52,NW,315,10.1,27.3,92,0.00,,,0.00,heavyweathercustom,2013-06-14 05:10:00,
2013-06-14 01:20:00,54.3,52.0,29.54,SW,225,3.3,27.3,92,0.00,,,0.00,heavyweathercustom,2013-06-14 05:20:00,
2013-06-14 01:30:00,54.3,52.0,29.54,East,90,3.3,23.7,92,0.00,,,0.00,heavyweathercustom,2013-06-14 05:30:00,
2013-06-14 01:40:00,54.1,51.8,29.54,WNW,293,0.0,23.7,92,0.00,,,0.00,heavyweathercustom,2013-06-14 05:40:00,
2013-06-14 01:50:00,54.1,52.1,29.54,WNW,293,6.8,23.7,93,0.00,,,0.00,heavyweathercustom,2013-06-14 05:50:00,
2013-06-14 02:00:00,54.1,52.1,29.55,East,90,0.0,23.7,93,0.00,,,0.00,heavyweathercustom,2013-06-14 06:00:00,
2013-06-14 02:10:00,54.3,52.3,29.55,ESE,113,0.0,23.7,93,0.11,,,0.11,heavyweathercustom,2013-06-14 06:10:00,
2013-06-14 02:20:00,54.3,52.3,29.56,East,90,0.0,23.7,93,0.13,,,0.13,heavyweathercustom,2013-06-14 06:20:00,
2013-06-14 02:30:00,54.1,52.1,29.56,WSW,248,6.8,23.7,93,0.13,,,0.13,heavyweathercustom,2013-06-14 06:30:00,
2013-06-14 02:40:00,54.1,52.1,29.56,WSW,248,15.7,23.7,93,0.13,,,0.13,heavyweathercustom,2013-06-14 06:40:00,
2013-06-14 02:50:00,54.1,52.1,29.56,NW,315,26.1,26.1,93,0.13,,,0.13,heavyweathercustom,2013-06-14 06:50:00,
2013-06-14 03:00:00,54.3,52.3,29.55,West,270,6.8,22.1,93,0.13,,,0.13,heavyweathercustom,2013-06-14 07:00:00,
2013-06-14 03:10:00,54.5,52.5,29.55,NW,315,13.4,22.1,93,0.02,,,0.13,heavyweathercustom,2013-06-14 07:10:00,
2013-06-14 03:20:00,54.5,52.5,29.56,NW,315,0.0,22.1,93,0.00,,,0.13,heavyweathercustom,2013-06-14 07:20:00,
2013-06-14 03:30:00,54.7,52.4,29.56,WNW,293,10.1,26.1,92,0.16,,,0.29,heavyweathercustom,2013-06-14 07:30:00,
2013-06-14 03:40:00,54.7,52.1,29.56,WNW,293,6.8,23.7,91,0.44,,,0.57,heavyweathercustom,2013-06-14 07:40:00,
2013-06-14 03:50:00,54.5,51.6,29.57,WSW,248,3.3,23.7,90,0.44,,,0.57,heavyweathercustom,2013-06-14 07:50:00,
2013-06-14 04:00:00,54.3,51.4,29.57,East,90,0.0,23.7,90,0.44,,,0.57,heavyweathercustom,2013-06-14 08:00:00,
2013-06-14 04:10:00,54.3,51.4,29.58,West,270,10.1,23.7,90,0.44,,,0.57,heavyweathercustom,2013-06-14 08:10:00,
2013-06-14 04:20:00,54.3,51.4,29.57,SW,225,0.0,27.6,90,0.44,,,0.57,heavyweathercustom,2013-06-14 08:20:00,
2013-06-14 04:30:00,54.3,51.4,29.58,WNW,293,15.7,27.1,90,0.28,,,0.57,heavyweathercustom,2013-06-14 08:30:00,
2013-06-14 04:40:00,54.1,51.2,29.59,NW,315,3.3,27.1,90,0.00,,,0.57,heavyweathercustom,2013-06-14 08:40:00,
2013-06-14 04:50:00,54.3,51.4,29.60,SE,135,10.1,27.1,90,0.00,,,0.57,heavyweathercustom,2013-06-14 08:50:00,
2013-06-14 05:00:00,54.5,51.6,29.61,SE,135,3.3,27.1,90,0.00,,,0.57,heavyweathercustom,2013-06-14 09:00:00,
2013-06-14 05:10:00,54.7,51.8,29.61,South,180,0.0,27.1,90,0.00,,,0.57,heavyweathercustom,2013-06-14 09:10:00,
2013-06-14 05:20:00,54.7,51.8,29.62,SSE,158,0.0,14.7,90,0.00,,,0.57,heavyweathercustom,2013-06-14 09:20:00,
2013-06-14 05:30:00,54.7,51.5,29.61,WNW,293,0.0,14.7,89,0.00,,,0.57,heavyweathercustom,2013-06-14 09:30:00,
2013-06-14 05:40:00,54.7,51.5,29.62,WSW,248,3.3,14.7,89,0.00,,,0.57,heavyweathercustom,2013-06-14 09:40:00,
2013-06-14 05:50:00,55.0,51.8,29.62,SSE,158,10.1,14.7,89,0.00,,,0.57,heavyweathercustom,2013-06-14 09:50:00,
2013-06-14 06:00:00,55.0,51.5,29.63,SSW,203,0.0,19.5,88,0.00,,,0.57,heavyweathercustom,2013-06-14 10:00:00,
2013-06-14 06:10:00,55.2,51.7,29.64,WSW,248,0.0,13.1,88,0.00,,,0.57,heavyweathercustom,2013-06-14 10:10:00,
2013-06-14 06:20:00,55.2,51.7,29.64,SSW,203,0.0,13.1,88,0.00,,,0.57,heavyweathercustom,2013-06-14 10:20:00,
2013-06-14 06:30:00,55.6,51.8,29.65,SSW,203,6.8,13.1,87,0.00,,,0.57,heavyweathercustom,2013-06-14 10:30:00,
2013-06-14 06:40:00,55.9,51.8,29.65,WSW,248,3.3,13.1,86,0.00,,,0.57,heavyweathercustom,2013-06-14 10:40:00,
2013-06-14 06:50:00,55.9,51.8,29.65,WNW,293,6.8,13.1,86,0.00,,,0.57,heavyweathercustom,2013-06-14 10:50:00,
2013-06-14 07:00:00,55.9,51.8,29.65,West,270,0.0,19.0,86,0.00,,,0.57,heavyweathercustom,2013-06-14 11:00:00,
2013-06-14 07:10:00,55.9,51.8,29.65,SW,225,0.0,19.0,86,0.00,,,0.57,heavyweathercustom,2013-06-14 11:10:00,
2013-06-14 07:20:00,56.1,52.0,29.65,NW,315,13.4,25.6,86,0.00,,,0.57,heavyweathercustom,2013-06-14 11:20:00,
2013-06-14 07:30:00,56.3,51.8,29.67,SE,135,3.3,25.6,85,0.00,,,0.57,heavyweathercustom,2013-06-14 11:30:00,
2013-06-14 07:40:00,56.8,52.3,29.67,SW,225,6.8,25.6,85,0.00,,,0.57,heavyweathercustom,2013-06-14 11:40:00,
2013-06-14 08:00:00,57.4,51.9,29.66,West,270,6.8,23.7,82,0.07,,,0.64,heavyweathercustom,2013-06-14 12:00:00,
2013-06-14 08:10:00,57.6,51.8,29.66,NW,315,6.8,23.7,81,0.07,,,0.64,heavyweathercustom,2013-06-14 12:10:00,
2013-06-14 08:20:00,57.7,51.6,29.66,West,270,0.0,23.7,80,0.07,,,0.64,heavyweathercustom,2013-06-14 12:20:00,
2013-06-14 08:30:00,58.1,51.6,29.66,WSW,248,3.3,21.3,79,0.07,,,0.64,heavyweathercustom,2013-06-14 12:30:00,
2013-06-14 08:40:00,58.6,52.1,29.67,SE,135,0.0,21.3,79,0.07,,,0.64,heavyweathercustom,2013-06-14 12:40:00,
2013-06-14 08:50:00,59.2,52.3,29.67,SSW,203,0.0,21.3,78,0.05,,,0.64,heavyweathercustom,2013-06-14 12:50:00,
2013-06-14 09:00:00,59.5,52.6,29.69,SE,135,0.0,22.7,78,0.00,,,0.64,heavyweathercustom,2013-06-14 13:00:00,
2013-06-14 09:10:00,59.7,52.5,29.69,SE,135,6.8,22.7,77,0.00,,,0.64,heavyweathercustom,2013-06-14 13:10:00,
2013-06-14 09:20:00,59.9,52.7,29.70,WSW,248,0.0,22.7,77,0.00,,,0.64,heavyweathercustom,2013-06-14 13:20:00,
2013-06-14 09:30:00,59.9,52.7,29.70,SE,135,3.3,22.7,77,0.00,,,0.64,heavyweathercustom,2013-06-14 13:30:00,
2013-06-14 09:40:00,60.1,52.9,29.71,East,90,0.0,22.7,77,0.00,,,0.64,heavyweathercustom,2013-06-14 13:40:00,
2013-06-14 09:50:00,59.5,51.9,29.72,SE,135,3.3,15.7,76,0.00,,,0.64,heavyweathercustom,2013-06-14 13:50:00,
2013-06-14 10:00:00,59.5,52.3,29.73,NW,315,0.0,15.7,77,0.00,,,0.64,heavyweathercustom,2013-06-14 14:00:00,
2013-06-14 10:10:00,59.7,52.5,29.74,South,180,0.0,15.7,77,0.00,,,0.64,heavyweathercustom,2013-06-14 14:10:00,
2013-06-14 10:20:00,60.1,52.9,29.75,SE,135,3.3,14.7,77,0.00,,,0.64,heavyweathercustom,2013-06-14 14:20:00,
2013-06-14 10:30:00,60.4,53.2,29.74,SSE,158,3.3,14.7,77,0.00,,,0.64,heavyweathercustom,2013-06-14 14:30:00,
2013-06-14 10:40:00,60.6,53.0,29.74,SE,135,0.0,14.7,76,0.00,,,0.64,heavyweathercustom,2013-06-14 14:40:00,
2013-06-14 10:50:00,61.0,53.0,29.75,SW,225,0.0,14.7,75,0.00,,,0.64,heavyweathercustom,2013-06-14 14:50:00,
2013-06-14 11:10:00,61.7,53.0,29.76,WNW,293,10.1,20.7,73,0.00,,,0.64,heavyweathercustom,2013-06-14 15:10:00,
2013-06-14 11:20:00,61.9,52.8,29.76,NW,315,0.0,20.7,72,0.00,,,0.64,heavyweathercustom,2013-06-14 15:20:00,
2013-06-14 11:30:00,62.2,52.7,29.75,WSW,248,3.3,27.1,71,0.00,,,0.64,heavyweathercustom,2013-06-14 15:30:00,
2013-06-14 11:40:00,62.8,53.6,29.76,SE,135,0.0,27.1,72,0.00,,,0.64,heavyweathercustom,2013-06-14 15:40:00,
2013-06-14 11:50:00,63.1,53.5,29.75,West,270,3.3,27.1,71,0.00,,,0.64,heavyweathercustom,2013-06-14 15:50:00,
2013-06-14 12:00:00,63.3,53.3,29.76,NW,315,6.8,25.1,70,0.00,,,0.64,heavyweathercustom,2013-06-14 16:00:00,
2013-06-14 12:10:00,63.7,53.3,29.76,SE,135,0.0,25.1,69,0.00,,,0.64,heavyweathercustom,2013-06-14 16:10:00,
2013-06-14 12:20:00,64.6,54.2,29.75,NW,315,0.0,25.1,69,0.00,,,0.64,heavyweathercustom,2013-06-14 16:20:00,
2013-06-14 12:30:00,65.1,54.3,29.75,West,270,0.0,25.1,68,0.00,,,0.64,heavyweathercustom,2013-06-14 16:30:00,
2013-06-14 12:40:00,64.9,53.7,29.76,West,270,0.0,25.1,67,0.00,,,0.64,heavyweathercustom,2013-06-14 16:40:00,
2013-06-14 12:50:00,64.9,54.1,29.75,WSW,248,3.3,25.1,68,0.00,,,0.64,heavyweathercustom,2013-06-14 16:50:00,
2013-06-14 13:00:00,65.3,54.5,29.76,ENE,68,0.0,12.2,68,0.00,,,0.64,heavyweathercustom,2013-06-14 17:00:00,
2013-06-14 13:10:00,65.1,53.9,29.76,NW,315,6.8,12.2,67,0.00,,,0.64,heavyweathercustom,2013-06-14 17:10:00,
2013-06-14 13:20:00,65.3,54.1,29.76,NW,315,0.0,12.2,67,0.00,,,0.64,heavyweathercustom,2013-06-14 17:20:00,
2013-06-14 13:30:00,65.8,54.5,29.76,NW,315,3.3,20.7,67,0.00,,,0.64,heavyweathercustom,2013-06-14 17:30:00,
2013-06-14 13:40:00,66.0,54.3,29.76,WNW,293,0.0,20.7,66,0.00,,,0.64,heavyweathercustom,2013-06-14 17:40:00,
2013-06-14 13:50:00,65.7,54.4,29.76,SSW,203,0.0,20.7,67,0.00,,,0.64,heavyweathercustom,2013-06-14 17:50:00,
2013-06-14 14:00:00,65.5,54.2,29.76,SSE,158,0.0,20.7,67,0.00,,,0.64,heavyweathercustom,2013-06-14 18:00:00,
2013-06-14 14:10:00,65.7,54.4,29.76,SE,135,0.0,20.7,67,0.00,,,0.64,heavyweathercustom,2013-06-14 18:10:00,
2013-06-14 14:20:00,66.0,55.1,29.76,WNW,293,0.0,20.7,68,0.00,,,0.64,heavyweathercustom,2013-06-14 18:20:00,
2013-06-14 14:30:00,66.4,55.1,29.76,NW,315,0.0,7.7,67,0.00,,,0.64,heavyweathercustom,2013-06-14 18:30:00,
2013-06-14 14:40:00,66.7,55.8,29.76,West,270,0.0,7.7,68,0.00,,,0.64,heavyweathercustom,2013-06-14 18:40:00,
2013-06-14 14:50:00,67.1,55.8,29.76,NW,315,0.0,6.0,67,0.00,,,0.64,heavyweathercustom,2013-06-14 18:50:00,
2013-06-14 15:00:00,67.5,56.1,29.75,SSE,158,0.0,6.0,67,0.00,,,0.64,heavyweathercustom,2013-06-14 19:00:00,
2013-06-14 15:10:00,67.6,56.7,29.75,WNW,293,0.0,6.0,68,0.00,,,0.64,heavyweathercustom,2013-06-14 19:10:00,
2013-06-14 15:20:00,68.2,57.6,29.75,West,270,0.0,2.7,69,0.00,,,0.64,heavyweathercustom,2013-06-14 19:20:00,
2013-06-14 15:30:00,68.2,56.4,29.74,NNW,338,0.0,2.7,66,0.00,,,0.64,heavyweathercustom,2013-06-14 19:30:00,
2013-06-14 15:40:00,68.4,56.2,29.74,NW,315,0.0,2.7,65,0.00,,,0.64,heavyweathercustom,2013-06-14 19:40:00,
2013-06-14 15:50:00,68.7,56.4,29.74,WNW,293,0.0,5.7,65,0.00,,,0.64,heavyweathercustom,2013-06-14 19:50:00,
2013-06-14 16:00:00,69.1,56.8,29.73,WNW,293,0.0,5.7,65,0.00,,,0.64,heavyweathercustom,2013-06-14 20:00:00,
2013-06-14 16:10:00,69.1,56.8,29.73,NW,315,0.0,5.7,65,0.00,,,0.64,heavyweathercustom,2013-06-14 20:10:00,
2013-06-14 16:20:00,69.1,56.4,29.73,NW,315,0.0,4.1,64,0.00,,,0.64,heavyweathercustom,2013-06-14 20:20:00,
2013-06-14 16:30:00,69.4,57.1,29.75,NW,315,0.0,4.1,65,0.00,,,0.64,heavyweathercustom,2013-06-14 20:30:00,
2013-06-14 16:40:00,69.6,57.3,29.75,NW,315,0.0,4.1,65,0.00,,,0.64,heavyweathercustom,2013-06-14 20:40:00,
2013-06-14 16:50:00,70.0,56.8,29.74,NW,315,0.0,5.1,63,0.00,,,0.64,heavyweathercustom,2013-06-14 20:50:00,
2013-06-14 17:00:00,69.8,57.1,29.74,NW,315,0.0,5.1,64,0.00,,,0.64,heavyweathercustom,2013-06-14 21:00:00,
2013-06-14 17:10:00,69.4,57.1,29.74,NW,315,0.0,6.0,65,0.00,,,0.64,heavyweathercustom,2013-06-14 21:10:00,
2013-06-14 17:20:00,68.9,57.1,29.75,WNW,293,0.0,6.0,66,0.00,,,0.64,heavyweathercustom,2013-06-14 21:20:00,
2013-06-14 17:30:00,68.2,57.2,29.75,NW,315,0.0,6.0,68,0.00,,,0.64,heavyweathercustom,2013-06-14 21:30:00,
2013-06-14 17:40:00,67.8,58.0,29.75,NW,315,0.0,6.0,71,0.00,,,0.64,heavyweathercustom,2013-06-14 21:40:00,
2013-06-14 17:50:00,67.8,58.8,29.75,NW,315,0.0,3.0,73,0.00,,,0.64,heavyweathercustom,2013-06-14 21:50:00,
2013-06-14 18:00:00,68.2,59.2,29.76,NW,315,0.0,3.0,73,0.00,,,0.64,heavyweathercustom,2013-06-14 22:00:00,
2013-06-14 18:10:00,67.8,59.2,29.76,NW,315,0.0,3.0,74,0.00,,,0.64,heavyweathercustom,2013-06-14 22:10:00,
2013-06-14 18:20:00,68.2,60.0,29.76,WNW,293,0.0,3.0,75,0.00,,,0.64,heavyweathercustom,2013-06-14 22:20:00,
2013-06-14 18:30:00,68.7,59.3,29.77,SSE,158,0.0,3.0,72,0.00,,,0.64,heavyweathercustom,2013-06-14 22:30:00,
2013-06-14 18:40:00,69.3,59.1,29.77,SE,135,0.0,3.0,70,0.00,,,0.64,heavyweathercustom,2013-06-14 22:40:00,
2013-06-14 18:50:00,69.1,58.9,29.77,WSW,248,0.0,3.0,70,0.00,,,0.64,heavyweathercustom,2013-06-14 22:50:00,
2013-06-14 19:00:00,68.7,58.5,29.78,SE,135,3.3,7.4,70,0.00,,,0.64,heavyweathercustom,2013-06-14 23:00:00,
2013-06-14 19:10:00,68.7,58.5,29.78,SE,135,3.3,7.4,70,0.00,,,0.64,heavyweathercustom,2013-06-14 23:10:00,
2013-06-14 19:20:00,68.5,58.3,29.79,SE,135,3.3,7.4,70,0.00,,,0.64,heavyweathercustom,2013-06-14 23:20:00,
2013-06-14 19:30:00,68.5,57.1,29.79,SE,135,0.0,6.0,67,0.00,,,0.64,heavyweathercustom,2013-06-14 23:30:00,
2013-06-14 19:40:00,68.4,56.6,29.80,SE,135,0.0,6.0,66,0.00,,,0.64,heavyweathercustom,2013-06-14 23:40:00,
2013-06-14 19:50:00,68.4,56.6,29.81,SE,135,0.0,6.0,66,0.00,,,0.64,heavyweathercustom,2013-06-14 23:50:00,
2013-06-14 20:00:00,68.2,56.0,29.79,West,270,0.0,13.4,65,0.00,,,0.64,heavyweathercustom,2013-06-15 00:00:00,
2013-06-14 20:10:00,67.8,56.0,29.79,SE,135,0.0,13.4,66,0.00,,,0.64,heavyweathercustom,2013-06-15 00:10:00,
2013-06-14 20:20:00,67.6,55.8,29.79,SSE,158,0.0,13.4,66,0.00,,,0.64,heavyweathercustom,2013-06-15 00:20:00,
2013-06-14 20:30:00,67.3,56.0,29.79,SSE,158,0.0,10.1,67,0.00,,,0.64,heavyweathercustom,2013-06-15 00:30:00,
2013-06-14 20:40:00,67.1,56.2,29.80,SE,135,3.3,10.1,68,0.00,,,0.64,heavyweathercustom,2013-06-15 00:40:00,
2013-06-14 20:50:00,66.9,56.0,29.81,WSW,248,0.0,10.1,68,0.00,,,0.64,heavyweathercustom,2013-06-15 00:50:00,
2013-06-14 21:00:00,66.9,56.0,29.81,WNW,293,0.0,10.1,68,0.00,,,0.64,heavyweathercustom,2013-06-15 01:00:00,
2013-06-14 21:10:00,66.9,56.0,29.81,SE,135,0.0,3.8,68,0.00,,,0.64,heavyweathercustom,2013-06-15 01:10:00,
2013-06-14 21:20:00,67.1,56.6,29.81,SW,225,0.0,3.8,69,0.00,,,0.64,heavyweathercustom,2013-06-15 01:20:00,
2013-06-14 21:30:00,66.9,56.4,29.81,WNW,293,0.0,3.8,69,0.00,,,0.64,heavyweathercustom,2013-06-15 01:30:00,
2013-06-14 21:40:00,66.9,56.8,29.82,WNW,293,0.0,3.8,70,0.00,,,0.64,heavyweathercustom,2013-06-15 01:40:00,
2013-06-14 21:50:00,66.7,56.6,29.82,SE,135,0.0,3.8,70,0.00,,,0.64,heavyweathercustom,2013-06-15 01:50:00,
2013-06-14 22:00:00,66.7,57.0,29.83,WNW,293,0.0,7.4,71,0.00,,,0.64,heavyweathercustom,2013-06-15 02:00:00,
2013-06-14 22:10:00,66.6,56.9,29.83,SE,135,0.0,9.5,71,0.00,,,0.64,heavyweathercustom,2013-06-15 02:10:00,
2013-06-14 22:20:00,66.6,56.9,29.83,SE,135,3.3,9.5,71,0.00,,,0.64,heavyweathercustom,2013-06-15 02:20:00,
2013-06-14 22:30:00,66.4,57.1,29.83,WSW,248,0.0,9.5,72,0.00,,,0.64,heavyweathercustom,2013-06-15 02:30:00,
2013-06-14 22:40:00,66.0,56.7,29.83,NNW,338,0.0,9.5,72,0.00,,,0.64,heavyweathercustom,2013-06-15 02:40:00,
2013-06-14 22:50:00,66.0,57.1,29.83,SSE,158,0.0,5.1,73,0.00,,,0.64,heavyweathercustom,2013-06-15 02:50:00,
2013-06-14 23:00:00,65.7,57.2,29.83,WSW,248,0.0,5.1,74,0.00,,,0.64,heavyweathercustom,2013-06-15 03:00:00,
2013-06-14 23:10:00,65.5,57.0,29.84,SSE,158,0.0,5.1,74,0.00,,,0.64,heavyweathercustom,2013-06-15 03:10:00,
2013-06-14 23:20:00,65.5,57.0,29.84,SE,135,0.0,5.1,74,0.00,,,0.64,heavyweathercustom,2013-06-15 03:20:00,
2013-06-14 23:30:00,65.3,57.2,29.84,SE,135,0.0,5.1,75,0.00,,,0.64,heavyweathercustom,2013-06-15 03:30:00,
2013-06-14 23:40:00,65.1,57.0,29.85,SSE,158,0.0,5.1,75,0.00,,,0.64,heavyweathercustom,2013-06-15 03:40:00,
2013-06-14 23:50:00,65.3,57.5,29.85,SE,135,0.0,5.1,76,0.00,,,0.64,heavyweathercustom,2013-06-15 03:50:00,